This demonstration page uses our WeatherBlox Daily Observations layout. Learn more.

Left ArrowRight Arrow

39.01783, -85.05884

Hourly Observations for April 20, 2018

Temp ( °F °C ) Dew Point ( °F °C ) Humidity (%) Winds ( mph kmh ) Pressure ( in mb ) Visibility ( mi km ) Precip ( " mm )
12:52 am 00:52 Clear 42 5.6 26 -3.3 53 53 NNW 9 15 30.35 1028 10 16 N/A
1:52 am 01:52 Clear 41 5 26 -3.3 55 55 NNW 8 13 30.35 1028 10 16 N/A
2:52 am 02:52 Clear 38 3.3 27 -2.8 65 65 N 7 11 30.36 1028 10 16 N/A
3:52 am 03:52 Clear 35 1.7 27 -2.8 72 72 N 8 13 30.37 1029 10 16 N/A
4:52 am 04:52 Clear 36 2.2 27 -2.8 70 70 N 8 13 30.39 1029 10 16 N/A
5:52 am 05:52 Clear 36 2.2 28 -2.2 73 73 N 9 15 30.40 1030 10 16 N/A
6:52 am 06:52 Clear 33 0.6 27 -2.8 78 78 N 9 15 30.42 1030 10 16 N/A
7:52 am 07:52 Sunny 36 2.2 28 -2.2 73 73 N 8 13 30.44 1031 10 16 N/A
8:52 am 08:52 Sunny 40 4.4 29 -1.7 65 65 N 5 7 30.47 1032 10 16 N/A
9:52 am 09:52 Sunny 45 7.2 29 -1.7 54 54 ENE 6 9 30.48 1032 10 16 N/A
10:52 am 10:52 Sunny 48 8.9 26 -3.3 42 42 E 9 15 30.48 1032 10 16 N/A
11:52 am 11:52 Sunny 51 10.6 24 -4.4 35 35 ENE 3 6 30.48 1032 10 16 N/A
12:52 pm 12:52 Sunny 53 11.7 25 -3.9 34 34 E 9 15 30.47 1032 10 16 N/A
1:52 pm 13:52 Sunny 55 12.8 23 -5 29 29 NNE 6 9 30.45 1031 10 16 N/A
2:52 pm 14:52 Mostly Sunny 57 13.9 22 -5.6 26 26 ENE 7 11 30.44 1031 10 16 N/A
3:52 pm 15:52 Mostly Sunny 59 15 23 -5 25 25 NNW 8 13 30.43 1030 10 16 N/A
4:52 pm 16:52 Partly Cloudy 60 15.6 24 -4.4 25 25 NNE 10 17 30.41 1030 10 16 N/A
5:30 pm 17:30 Partly Cloudy 59 15 23 -5 25 25 N 6 9 30.39 1029 10 16 N/A
5:52 pm 17:52 Partly Cloudy 59 15 21 -6.1 23 23 ENE 8 13 30.40 1029 10 16 N/A
6:52 pm 18:52 Partly Cloudy 58 14.4 22 -5.6 25 25 VRB 3 6 30.40 1030 10 16 N/A
7:52 pm 19:52 Mostly Cloudy 56 13.3 23 -5 28 28 NNE 7 11 30.40 1029 10 16 N/A
8:52 pm 20:52 Mostly Cloudy 53 11.7 24 -4.4 32 32 NNE 5 7 30.40 1029 10 16 N/A
9:52 pm 21:52 Mostly Clear 54 12.2 23 -5 30 30 NE 9 15 30.40 1030 10 16 N/A
10:52 pm 22:52 Mostly Clear 50 10 26 -3.3 39 39 E 5 7 30.41 1030 10 16 N/A
11:52 pm 23:52 Mostly Clear 47 8.3 28 -2.2 48 48 E 7 11 30.40 1029 10 16 N/A

Powered by AerisWeather